Find KUIPER-00409

NORAD ID: 68925 Int'l Des: 2026-098G Owner: amazon-leo Country: USA Constellation: amazon-leo operational
LEOCIRCULAR

Live Position

Loading 3D Globe...

About KUIPER-00409

Description loading...

Upcoming Passes

Passes for default location (London). Set your location on the main map for personalized predictions.

Altitude History

Loading altitude history...

Two-Line Element Set

1 68925U 26098G 26125.50001156 -.00002705 00000-0 -67972-4 0 9990
2 68925 51.8756 273.3817 0006194 356.3517 259.4801 15.34720068 1753
Epoch: May 5, 2026 • Age: 11 hours

Current Status

Altitude 458.5 km
Velocity 7.64 km/s
Sub-Earth Point -1.72°S, 55.16°E
Type internet

Most Searched